Regional Weather Roundup
Issued by NWS Charleston, SC

Current Version | Previous Version | Graphics & Text | Print | Product List | Glossary On
Versions: 1 2 3 4 5 6 7 8 9 10 11 12 13 14 15 16 17 18 19 20 21 22 23 24 25 26 27 28 29 30 31 32 33 34 35 36 37 38 39 40 41 42 43 44 45 46 47 48 49 50
806
ASUS42 KCHS 270312
RWRCHS

REGIONAL WEATHER ROUNDUP
NATIONAL WEATHER SERVICE CHARLESTON SC
1100 PM EDT WED APR 26 2017

NOTE: "FAIR" INDICATES FEW OR NO CLOUDS BELOW 12,000 FEET WITH NO
SIGNIFICANT WEATHER AND/OR OBSTRUCTIONS TO VISIBILITY.

NOT ALL STATIONS ARE QUALITY CONTROLLED. USE DATA WITH CAUTION...
ESPECIALLY DEWPOINT OBSERVATIONS.

SCZ027-030-031-034>040-042>050-270400-
...SOUTHEAST SOUTH CAROLINA...

CITY           SKY/WX    TMP DP  RH WIND       PRES   REMARKS
N CHARLESTON   CLEAR     68  60  75 S8        29.88R
WATERFRONT PRK   N/A     72  65  78 S12       29.87R
JOHNS ISLAND   FAIR      72  63  73 S12       29.88S
PINOPOLIS        N/A    N/A N/A N/A VRB3      29.78S
MONCKS CORNER  FAIR      66  57  72 S3        29.87S
SUMMERVILLE    FAIR      66  59  77 CALM      29.88S
BEAUFORT MCAS  CLEAR     72  66  81 S7        29.88R
BEAUFORT ARPT  FAIR      70  64  83 S8        29.88R
HILTON HEAD IS CLEAR     72  66  83 S9G15     29.89R
WALTERBORO     CLEAR     64  61  88 S5        29.89R
ALLENDALE      FAIR      68  61  77 S8        29.85R

...SOUTHERN MIDLANDS AND PEE DEE...

CITY           SKY/WX    TMP DP  RH WIND       PRES   REMARKS
GEORGETOWN     FAIR      68  61  77 S5        29.90R
KINGSTREE      FAIR      68  55  64 S6        29.87R
ORANGEBURG     CLEAR     68  59  73 S8        29.87R
BARNWELL       FAIR      72  61  68 S7        29.86R
AIKEN          MOCLDY    68  59  73 SE8       29.88R
MANNING        FAIR      70  59  68 S28G35    29.87R
COLUMBIA       CLEAR     73  58  59 S13       29.83R
SUMTER         CLEAR     70  57  63 S10       29.84R
FLORENCE       CLEAR     70  59  68 S12       29.85R
MYRTLE BEACH   NOT AVBL
N MYRTLE BEACH CLEAR     70  64  81 SW16      29.88R

$$

GAZ063-065-086>088-099>101-113>116-118-119-134>141-150-270400-
...SOUTHEAST GEORGIA...

CITY           SKY/WX    TMP DP  RH WIND       PRES   REMARKS
SAVANNAH ARPT  PTCLDY    70  62  76 S9        29.88R
HUNTER AAF     PTCLDY    72  68  88 CALM      29.86R
FORT STEWART   CLEAR     68  62  79 S5        29.86R
STATESBORO     PTCLDY    71  62  74 S6        29.87R
SYLVANIA       CLEAR    N/A N/A N/A S3        29.87R
CLAXTON        FAIR      70  67  92 SE3       29.87R

...CSRA...CENTRAL AND FAR SOUTHEAST GEORGIA...

CITY           SKY/WX    TMP DP  RH WIND       PRES   REMARKS
THOMSON        CLEAR     65  61  85 W3        29.88R
AUGUSTA-BUSH   CLOUDY    72  62  71 SE9       29.83R
AUGUSTA-DANIEL MOCLDY    73  58  59 SE9       29.84R
SWAINSBORO     MOCLDY    70  61  73 S6        29.86R
VIDALIA        CLOUDY    73  61  64 S6        29.86R
EASTMAN        CLOUDY    71  49  46 SW3       29.87R
HAZLEHURST     FAIR      72  56  57 SW8       29.85R
ALMA           CLEAR     66  56  70 CALM      29.86R
WAYCROSS       CLEAR     69  59  70 SW5       29.87R
JESUP          FAIR      70  61  73 S3        29.88R
BAXLEY         FAIR      70  59  68 SW3       29.86R
BRUNSWICK      CLEAR     73  66  78 S8        29.89R
SAINT SIMONS   CLEAR     73  62  68 S10G20    29.88R

$$

SCZ027-028-034-036>038-045-046-048>050-GAZ119-141-270400-
...LAKE AND SUPPLEMENTAL COASTAL OBSERVATIONS...

STATION/POSITION TIME  TEMP    WIND        PRES    WAVE   SWELL
                       AIR SEA DIR/SP/G            HT/PER HT/PER/DIR
                 (UTC) (F)     (DEG/KT/KT) (MB)    (FT/S) (FT/S/D)
WINYAH BAY       NOT AVBL
LAKE MURRAY      0220   73     150/  6/  7 1009.1R
ACE BASIN NERRS  0145   71     170/  2     1011.0
FORT PULASKI     0248   72 74  200/  9/ 15 1012.1R
SAPELO ISLAND    0200   73     180/ 16     1011.0

$$

ANZ835-935-AMZ111-154-330-350-352-354-370-450-454-472-270400-
...C-MAN AND BUOY OBSERVATIONS...

STATION/POSITION TIME  TEMP    WIND        PRES    WAVE   SWELL
                       AIR SEA DIR/SP/G            HT/PER HT/PER/DIR
                 (UTC) (F)     (DEG/KT/KT) (MB)    (FT/S) (FT/S/D)
BUOY 41004       0250   74 73  190/ 14/ 17 1012.1R   4/ 9   3/130/ 9
BUOY 41008       0250   73 72  180/ 16/ 19 1011.6R   3/ 9   2/110/ 9
FOLLY BEACH CMAN 0300   72     180/ 12/ 14 1012.5S
CAPERS NEARSHORE 0208   76 72  200/ 16/ 19 1011.7R
FRIPP NEARSHORE  0208   72 72  180/ 12/ 14 1011.2R


STATION/POSITION TIME  TEMP    WIND        PRES    WAVE   SWELL
                       AIR SEA DIR/SP/G            HT/PER HT/PER/DIR
                 (UTC) (F)     (DEG/KT/KT) (MB)    (FT/S) (FT/S/D)
5E ST. MARYS GA  0230      73                N/A     3/10   2/110/11
FRYING PAN BUOY  0250   74 73  210/ 14/ 16 1012.4R   4/ 9   3/130/ 9
BUOY 41025       0250   75 77  220/ 16/ 19 1012.0R   6/ 9   5/140/ 9
CAPE LOOKOUT NC  0200   72     210/  8/  9 1011.4R
BUOY 41002       0250   75 75  200/ 14/ 16 1014.9R   6/ 9   5/ 90/ 9
BUOY 41010       0250   76 78  150/ 10/ 14 1014.4R   4/ 9   3/120/ 9
ST AUGUSTINE FL  0300   73 75  180/ 13/ 16 1013.6R


$$




USA.gov is the U.S. government's official web portal to all federal, state and local government web resources and services.